User: anonymous   Login
Location: Unspecified
(0.0000°N, 0.0000°E)
Time: 07:15:47
(UTC+00:00)
Language:

Nadezhda 5 - Orbit

View from above orbital plane
View from above orbital plane
View from above satellite
View from above satellite

Ground track
Ground track

The orbit data is extracted from the following two-line orbital elements,

1 25567U 98072A   17178.90809213 +.00000031 +00000-0 +17465-4 0  9998
2 25567 082.9472 340.5123 0025452 196.9862 315.5297 13.71823378928459
Epoch (UTC): 27 June 2017 21:47:39
Eccentricity: 0.0025452
inclination: 82.9472°
perigee height: 974 km
apogee height: 1012 km
right ascension of ascending node: 340.5123°
argument of perigee: 196.9862°
revolutions per day: 13.71823378
mean anomaly at epoch: 315.5297°
orbit number at epoch: 92845

The dashed part of the orbit path shows where the satellite is in the earth's shadow,  

DLR